User: anonymous   Login
Location: *
(33.8649°S, 62.1526°E)
Time: 19:14:52
(UTC+00:00)
Language:

Tiangong - Orbit

View from above orbital plane
View from above orbital plane
View from above satellite
View from above satellite

Ground track
Ground track

The orbit data is extracted from the following two-line orbital elements,

1 48274U 21035A   21291.37654394  .00015552  00000-0  18001-3 0  9993
2 48274  41.4705 251.7666 0002073 252.2811 245.7306 15.61501084 26965
Epoch (UTC): 18 October 2021 09:02:13
Eccentricity: 0.0002073
inclination: 41.4705°
perigee height: 382 km
apogee height: 385 km
right ascension of ascending node: 251.7666°
argument of perigee: 252.2811°
revolutions per day: 15.61501084
mean anomaly at epoch: 245.7306°
orbit number at epoch: 2696

The dashed part of the orbit path shows where the satellite is in the earth's shadow,  

DLR